Main page
METAR-TAF:

METAR-TAF

Airports :

Noshahr Airport

Noshahr, Iran

latitude: 36-39-48N, longitude: 051-27-53E, elevation: 0 m

Current weather observation

The report was made 18 minutes ago, at 14:00 UTC
Wind 4 kt from the Northeast
Temperature 28°C
Humidity 62%
Pressure 1004 hPa
Visibility 10 km or more
Few clouds at a height of 2700 ft

METAR: OINN 181400Z 04004KT 9999 FEW027 28/20 Q1004

Time: 18:48 (14:18 UTC)


TAF: missing

Weather observations and forecasts of more than 4000 airports (METAR and TAF reports).

The available stations are represented by yellow and red dots on the map.

Hover mouse over dot to see the name of the station.

Then click to see weather observations and forecasts.

To change the map : click on the green buttons with a black cross to zoom in, on the green button with a dash to zoom out, or on the green arrows for adjacent maps.


METAR-TAF: